Regional Weather Roundup
Issued by NWS

Home | Current Version | Previous Version | Text Only | Print | Product List | Glossary Off
Versions: 1 2 3 4 5 6 7 8 9 10 11 12 13 14 15 16 17 18 19 20 21 22 23 24 25 26 27 28 29 30 31 32 33 34 35 36 37 38 39 40 41 42 43 44 45 46 47 48 49 50

000
ASUS44 KOUN 310710
RWROK

WEATHER ROUNDUP FOR OKLAHOMA
NATIONAL WEATHER SERVICE NORMAN OK
200 AM CDT FRI JUL 31 2015

NOTE: "FAIR" INDICATES FEW OR NO CLOUDS BELOW 12,000 FEET WITH NO
      SIGNIFICANT WEATHER AND/OR OBSTRUCTIONS TO VISIBILITY.

OKZ001>007-009>012-014-015-017-310800-
NORTHWEST OKLAHOMA AND THE PANHANDLE

CITY           SKY/WX    TMP DP  RH WIND       PRES   REMARKS
GAGE           MOCLDY    72  70  93 CALM      30.20F
GUYMON         CLOUDY    73  69  87 SE7       30.24F
ENID/WOODRING  CLEAR     72  70  94 CALM      30.14S
$$

OKZ016-021>023-033>039-044-045-310800-
SOUTHWEST OKLAHOMA

CITY           SKY/WX    TMP DP  RH WIND       PRES   REMARKS
LAWTON/REGL    CLEAR     79  73  82 NE6       30.12S
LAWTON/FT SILL CLEAR     78  74  87 NE6       30.11S
FREDERICK      CLEAR     81  75  82 E9        30.09S
CLINTON        MOCLDY    75  70  84 NE7       30.19F
HOBART         PTCLDY    77  71  82 NE10      30.15F
ALTUS AFB      CLEAR     79  71  77 NE9       30.13S
$$

OKZ018>020-024>031-310800-
CENTRAL OKLAHOMA

CITY           SKY/WX    TMP DP  RH WIND       PRES   REMARKS
OKLAHOMA CITY  MOCLDY    79  75  87 NE6       30.14S
OKC/WILEY POST MOCLDY    79  74  84 NE5       30.14S
OKC/TINKER AFB MOCLDY    76  74  92 NE2       30.13S
STILLWATER     PTCLDY    75  72  90 NE3       30.13S
GUTHRIE        PTCLDY    76  73  91 N5        30.13F
$$

OKZ008-013-054>072-310800-
NORTHEAST OKLAHOMA

CITY           SKY/WX    TMP DP  RH WIND       PRES   REMARKS
TULSA          PTCLDY    79  71  76 CALM      30.11S
TULSA/JONES    CLEAR     76  73  91 N3        30.11S
PONCA CITY     CLEAR     72  70  93 N3        30.14S
MUSKOGEE       PTCLDY    76  73  91 E3        30.12S
$$

OKZ032-040>043-046>053-073>077-310800-
SOUTH CENTRAL/SOUTHEAST OKLAHOMA

CITY           SKY/WX    TMP DP  RH WIND       PRES   REMARKS
ARDMORE/DWNTWN CLEAR     77  70  78 E3        30.10S
MCALESTER      PTCLDY    76  71  85 E6        30.11F
$$




USA.gov is the U.S. government's official web portal to all federal, state and local government web resources and services.